Regional Weather Roundup
Issued by NWS

Home | Current Version | Previous Version | Graphics & Text | Print | Product List | Glossary On
Versions: 1 2 3 4 5 6 7 8 9 10 11 12 13 14 15 16 17 18 19 20 21 22 23 24 25 26 27 28
000
ASUS45 KCYS 231810
RWRWY

WYOMING REGIONAL WEATHER ROUNDUP
NATIONAL WEATHER SERVICE CHEYENNE WY
1100 AM MST TUE JAN 23 2018

NOTE:  "FAIR" INDICATES FEW OR NO CLOUDS BELOW 12,000 FEET
WITH NO SIGNIFICANT WEATHER AND/OR OBSTRUCTIONS TO VISIBILITY.

WYZ001-231900-
YELLOWSTONE NATIONAL PARK

CITY           SKY/WX    TMP DP  RH WIND       PRES   REMARKS
LK YELLOWSTONE   N/A     15  10  80 CALM      30.23R
6HR MIN TEMP:  -8; 6HR MAX TEMP:  15;

W YELLOWSTONE  NOT AVBL

$$
WYZ002>013-054>058-071-098>099-231900-
NORTHERN WYOMING

CITY           SKY/WX    TMP DP  RH WIND       PRES   REMARKS
JACKSON        FAIR      21  15  78 CALM      30.27S
CODY           FAIR      34   8  33 CALM      30.21F
GREYBULL       FAIR      16   9  74 CALM      30.28S
6HR MIN TEMP:   2; 6HR MAX TEMP:  16;

WORLAND        FAIR      11   7  84 SW7       30.26S WCI   0
6HR MIN TEMP:  -5; 6HR MAX TEMP:  11;

SHERIDAN       CLOUDY    31  16  54 CALM      30.22S
6HR MIN TEMP:  17; 6HR MAX TEMP:  34;

BUFFALO        FAIR      33   8  35 VRB3      30.20S
6HR MIN TEMP:  20; 6HR MAX TEMP:  33;

GILLETTE       FAIR      31  18  58 W9        30.21R WCI  23
6HR MIN TEMP:  22; 6HR MAX TEMP:  31;

HULETT         CLOUDY    32  19  59 W8        30.18S WCI  25
NEWCASTLE      FAIR      32  18  55 NW7       30.21S WCI  26

$$
WYZ014>020-022>026-101>103-231900-
CENTRAL WYOMING

CITY           SKY/WX    TMP DP  RH WIND       PRES   REMARKS
BIG PINEY      FAIR      15   9  76 S6        30.27R WCI   6
6HR MIN TEMP:  -4; 6HR MAX TEMP:  17;

PINEDALE       FAIR      14  12  92 CALM      30.27S
DUBOIS         FAIR      25   9  50 N21G29    30.16S WCI  10
LANDER         FAIR      18   9  68 CALM      30.22S
6HR MIN TEMP:   5; 6HR MAX TEMP:  19;

RIVERTON       FAIR       9   4  80 CALM      30.24S
6HR MIN TEMP:  -3; 6HR MAX TEMP:  11;

CASPER         FAIR      22  12  65 SW17      30.24S WCI   8
6HR MIN TEMP:  11; 6HR MAX TEMP:  22;

DOUGLAS        FAIR      25  15  66 NW8       30.24S WCI  16
6HR MIN TEMP:   3; 6HR MAX TEMP:  25;


$$
WYZ021-027>030-104>119-231900-
SOUTHERN WYOMING

CITY           SKY/WX    TMP DP  RH WIND       PRES   REMARKS
EVANSTON       FAIR      24  19  81 SW9       30.29S WCI  14
6HR MIN TEMP:  17; 6HR MAX TEMP:  24;

FORT BRIDGER   FAIR      25  19  80 W8        30.31S WCI  16
ROCK SPRINGS   FAIR      22  15  75 W10       30.28F WCI  11
6HR MIN TEMP:  15; 6HR MAX TEMP:  22;

DIXON            N/A     22  14  72 CALM      30.35S
RAWLINS        FAIR      21  12  68 W17       30.26S WCI   7
6HR MIN TEMP:  15; 6HR MAX TEMP:  21;

SARATOGA       MOCLDY    25  14  63 SW21      30.28S WCI  10
LARAMIE        FAIR      21  13  71 SW12      30.19S WCI   9
6HR MIN TEMP:  10; 6HR MAX TEMP:  21;

CHEYENNE       FAIR      29  14  53 NW12      30.21R WCI  19
6HR MIN TEMP:  21; 6HR MAX TEMP:  29;

TORRINGTON     FAIR      27  17  66 W7        30.23S WCI  19
6HR MIN TEMP:  14; 6HR MAX TEMP:  27;


$$




USA.gov is the U.S. government's official web portal to all federal, state and local government web resources and services.